User: anonymous   Login
Location: Newark
(47.5833°N, 8.1500°E)
Time: 12:23:00
(UTC+00:00)
Language:

S-56A Canister/Altair - Orbit

View from above orbital plane
View from above orbital plane
View from above satellite
View from above satellite

Ground track
Ground track

The orbit data is extracted from the following two-line orbital elements,

1 00082U 61004B   21137.84875705 -.00000066  00000-0 -28910-4 0  9997
2 00082  38.8664  40.1556 1176863 257.4900  89.1893 12.26037627848854
Epoch (UTC): 17 May 2021 20:22:12
Eccentricity: 0.1176863
inclination: 38.8664°
perigee height: 631 km
apogee height: 2501 km
right ascension of ascending node: 40.1556°
argument of perigee: 257.4900°
revolutions per day: 12.26037627
mean anomaly at epoch: 89.1893°
orbit number at epoch: 84885

The dashed part of the orbit path shows where the satellite is in the earth's shadow,  

DLR